timestamp,surface_pressure_avg,surface_temp_avg,battery_voltage,lat,long
2023-09-04 00:09:00+00:00,276.4447,19.0,12.25,47.84626,-54.09684
2023-09-04 00:19:00+00:00,286.8747,19.03,12.25,47.84626,-54.09684
2023-09-04 00:29:00+00:00,294.1047,19.07,12.25,47.84626,-54.09684
2023-09-04 00:39:00+00:00,303.0513,19.08,12.25,47.84626,-54.09684
2023-09-04 00:49:00+00:00,316.1846,19.06,12.25,47.84626,-54.09684
2023-09-04 00:59:00+00:00,326.3096,19.0,12.25,47.84626,-54.09684
2023-09-04 01:09:00+00:00,331.2664,19.0,12.25,47.84626,-54.09684
2023-09-04 01:19:00+00:00,338.3263,19.0,12.25,47.84626,-54.09684
2023-09-04 01:29:00+00:00,346.8029,19.0,12.25,47.84626,-54.09684
2023-09-04 01:39:00+00:00,351.3197,19.0,12.25,47.84626,-54.09684
2023-09-04 01:49:00+00:00,352.9447,19.0,12.25,47.84626,-54.09684
2023-09-04 01:59:00+00:00,352.9697,18.97,12.25,47.84626,-54.09684
2023-09-04 02:09:00+00:00,353.2062,18.96,12.25,47.84626,-54.09684
2023-09-04 02:19:00+00:00,356.9213,18.92,12.25,47.84626,-54.09684
2023-09-04 02:29:00+00:00,360.2063,18.9,12.25,47.84626,-54.09684
2023-09-04 02:39:00+00:00,356.7162,18.92,12.25,47.84626,-54.09684
2023-09-04 02:49:00+00:00,355.083,18.9,12.25,47.84626,-54.09684
2023-09-04 02:59:00+00:00,358.9263,18.9,12.25,47.84626,-54.09684
2023-09-04 03:09:00+00:00,356.9846,18.9,12.25,47.84626,-54.09684
2023-09-04 03:19:00+00:00,352.1545,18.9,12.17,47.84626,-54.09684
2023-09-04 03:29:00+00:00,351.3614,18.9,12.17,47.84626,-54.09684
2023-09-04 03:39:00+00:00,349.8246,18.9,12.17,47.84626,-54.09684
2023-09-04 03:49:00+00:00,339.8730000000001,18.9,12.17,47.84626,-54.09684
2023-09-04 03:59:00+00:00,329.7996,18.8,12.17,47.84626,-54.09684
2023-09-04 04:09:00+00:00,329.0813,18.8,12.17,47.84626,-54.09684
2023-09-04 04:19:00+00:00,329.403,18.8,12.17,47.84626,-54.09684
2023-09-04 04:29:00+00:00,321.0813,18.82,12.17,47.84626,-54.09684
2023-09-04 04:39:00+00:00,309.373,18.89,12.17,47.84626,-54.09684
2023-09-04 04:49:00+00:00,309.1663,18.9,12.17,47.84626,-54.09684
2023-09-04 04:59:00+00:00,304.6464,18.9,12.17,47.84626,-54.09684
2023-09-04 05:09:00+00:00,290.0047,18.9,12.17,47.84626,-54.09684
2023-09-04 05:19:00+00:00,279.498,18.9,12.17,47.84626,-54.09684
2023-09-04 05:29:00+00:00,275.723,18.9,12.17,47.84626,-54.09684
2023-09-04 05:39:00+00:00,266.6781,18.9,12.17,47.84626,-54.09684
2023-09-04 05:49:00+00:00,251.3515,18.9,12.17,47.84626,-54.09684
2023-09-04 05:59:00+00:00,238.0465,18.9,12.17,47.84626,-54.09684
2023-09-04 06:09:00+00:00,227.0814,18.9,12.17,47.84626,-54.09684
2023-09-04 06:19:00+00:00,221.7864,18.86,12.17,47.84626,-54.09684
2023-09-04 06:29:00+00:00,215.3931,18.81,12.17,47.84626,-54.09684
2023-09-04 06:39:00+00:00,201.7598,18.8,12.17,47.84626,-54.09684
2023-09-04 06:49:00+00:00,191.2631,18.8,12.17,47.84626,-54.09684
2023-09-04 06:59:00+00:00,189.8665,18.8,12.17,47.84626,-54.09684
2023-09-04 07:09:00+00:00,183.1414,18.8,12.17,47.84626,-54.09684
2023-09-04 07:19:00+00:00,174.8531,18.8,12.17,47.84626,-54.09684
2023-09-04 07:29:00+00:00,177.1365,18.8,12.17,47.84626,-54.09684
2023-09-04 07:39:00+00:00,176.2865,18.8,12.17,47.84626,-54.09684
2023-09-04 07:49:00+00:00,168.2815,18.8,12.17,47.84626,-54.09684
2023-09-04 07:59:00+00:00,166.8165,18.8,12.17,47.84626,-54.09684
2023-09-04 08:09:00+00:00,171.0831,18.8,12.17,47.84626,-54.09684
2023-09-04 08:19:00+00:00,171.2664,18.8,12.17,47.84626,-54.09684
2023-09-04 08:29:00+00:00,172.6498,18.8,12.17,47.84626,-54.09684
2023-09-04 08:39:00+00:00,179.8282,18.8,12.17,47.84626,-54.09684
2023-09-04 08:49:00+00:00,185.2465,18.8,12.17,47.84626,-54.09684
2023-09-04 08:59:00+00:00,187.6081,18.8,12.17,47.84626,-54.09684
2023-09-04 09:09:00+00:00,192.9099,18.79,12.17,47.84626,-54.09684
2023-09-04 09:19:00+00:00,201.5214,18.78,12.17,47.84626,-54.09684
2023-09-04 09:29:00+00:00,207.8248,18.79,12.17,47.84626,-54.09684
2023-09-04 09:39:00+00:00,211.6548,18.8,12.17,47.84626,-54.09684
2023-09-04 09:49:00+00:00,219.9198,18.8,12.17,47.84626,-54.09684
2023-09-04 09:59:00+00:00,224.2881,18.8,12.17,47.84626,-54.09684
2023-09-04 10:09:00+00:00,221.7148,18.8,12.17,47.84626,-54.09684
2023-09-04 10:19:00+00:00,225.5414,18.8,12.17,47.84626,-54.09684
2023-09-04 10:29:00+00:00,231.5214,18.8,12.17,47.84626,-54.09684
2023-09-04 10:39:00+00:00,236.1581,18.8,12.17,47.84626,-54.09684
2023-09-04 10:49:00+00:00,238.4398,18.8,12.17,47.84626,-54.09684
2023-09-04 10:59:00+00:00,240.2115,18.8,12.17,47.84626,-54.09684
2023-09-04 11:09:00+00:00,243.7814,18.8,12.17,47.84626,-54.09684
2023-09-04 11:19:00+00:00,251.3315,18.8,12.25,47.84626,-54.09684
2023-09-04 11:29:00+00:00,253.3548,18.8,12.25,47.84626,-54.09684
2023-09-04 11:39:00+00:00,252.7997,18.8,12.25,47.84626,-54.09684
2023-09-04 11:49:00+00:00,258.4764,18.8,12.25,47.84626,-54.09684
2023-09-04 11:59:00+00:00,265.4547,18.8,12.25,47.84626,-54.09684
2023-09-04 12:09:00+00:00,271.0514,18.8,12.25,47.84626,-54.09684
2023-09-04 12:19:00+00:00,276.8113,18.88,12.41,47.84626,-54.09684
2023-09-04 12:29:00+00:00,289.4097,18.9,12.41,47.84626,-54.09684
2023-09-04 12:39:00+00:00,300.3381,18.89,12.41,47.84626,-54.09684
2023-09-04 12:49:00+00:00,309.088,18.89,12.41,47.84626,-54.09684
2023-09-04 12:59:00+00:00,319.273,18.86,12.41,47.84626,-54.09684
2023-09-04 13:09:00+00:00,328.5313,18.7,12.41,47.84626,-54.09684
2023-09-04 13:19:00+00:00,333.0762,18.72,12.65,47.84626,-54.09684
2023-09-04 13:29:00+00:00,336.8113,18.7,12.65,47.84626,-54.09684
2023-09-04 13:39:00+00:00,346.9246,18.69,12.65,47.84626,-54.09684
2023-09-04 13:49:00+00:00,353.3163,18.7,12.65,47.84626,-54.09684
2023-09-04 13:59:00+00:00,350.7697,18.76,12.65,47.84626,-54.09684
2023-09-04 14:09:00+00:00,351.5113,18.7,12.65,47.84626,-54.09684
2023-09-04 14:19:00+00:00,356.2613,18.69,12.65,47.84626,-54.09684
2023-09-04 14:29:00+00:00,357.1178,18.69,12.65,47.84626,-54.09684
2023-09-04 14:39:00+00:00,355.7563,18.68,12.65,47.84626,-54.09684
2023-09-04 14:49:00+00:00,357.043,18.7,12.65,47.84626,-54.09684
2023-09-04 14:59:00+00:00,359.2429,18.69,12.65,47.84626,-54.09684
2023-09-04 15:09:00+00:00,357.9028,18.7,12.65,47.84626,-54.09684
2023-09-04 15:19:00+00:00,357.9647,18.7,12.57,47.84626,-54.09684
2023-09-04 15:29:00+00:00,358.028,18.71,12.57,47.84626,-54.09684
2023-09-04 15:39:00+00:00,356.7362,18.79,12.57,47.84626,-54.09684
2023-09-04 15:49:00+00:00,358.0046,18.77,12.57,47.84626,-54.09684
2023-09-04 15:59:00+00:00,358.1946,18.8,12.57,47.84626,-54.09684
2023-09-04 16:09:00+00:00,353.55800000000005,18.88,12.57,47.84626,-54.09684
2023-09-04 16:19:00+00:00,347.5345,18.9,12.49,47.84626,-54.09684
2023-09-04 16:29:00+00:00,347.4946,18.72,12.49,47.84626,-54.09684
2023-09-04 16:39:00+00:00,344.3529,18.79,12.49,47.84626,-54.09684
2023-09-04 16:49:00+00:00,337.918,18.8,12.49,47.84626,-54.09684
2023-09-04 16:59:00+00:00,331.4346,18.8,12.49,47.84626,-54.09684
2023-09-04 17:09:00+00:00,327.1997,18.8,12.49,47.84626,-54.09684
2023-09-04 17:19:01+00:00,320.003,18.81,12.49,47.84626,-54.09684
2023-09-04 17:29:01+00:00,307.613,18.9,12.49,47.84626,-54.09684
2023-09-04 17:39:01+00:00,299.6664,18.89,12.49,47.84626,-54.09684
2023-09-04 17:49:01+00:00,292.733,18.9,12.49,47.84626,-54.09684
2023-09-04 17:59:01+00:00,283.8231,18.95,12.49,47.84626,-54.09684
2023-09-04 18:09:01+00:00,271.4131,18.94,12.49,47.84626,-54.09684
2023-09-04 18:19:00+00:00,261.043,19.0,12.41,47.84626,-54.09684
2023-09-04 18:29:00+00:00,254.608,19.0,12.41,47.84626,-54.09684
2023-09-04 18:39:00+00:00,245.6381,19.0,12.41,47.84626,-54.09684
2023-09-04 18:49:00+00:00,237.2231,19.0,12.41,47.84626,-54.09684
2023-09-04 18:59:00+00:00,228.6915,19.0,12.41,47.84626,-54.09684
2023-09-04 19:09:00+00:00,218.9931,19.05,12.41,47.84626,-54.09684
2023-09-04 19:19:00+00:00,207.9232,19.1,12.41,47.84626,-54.09684
2023-09-04 19:29:00+00:00,201.3398,19.1,12.41,47.84626,-54.09684
2023-09-04 19:39:00+00:00,194.4481,19.13,12.41,47.84626,-54.09684
2023-09-04 19:49:00+00:00,182.7248,19.34,12.41,47.84626,-54.09684
2023-09-04 19:59:00+00:00,175.9615,19.48,12.41,47.84626,-54.09684
2023-09-04 20:09:00+00:00,173.3815,19.5,12.41,47.84626,-54.09684
2023-09-04 20:19:00+00:00,168.7898,19.59,12.33,47.84626,-54.09684
2023-09-04 20:29:00+00:00,166.3098,19.63,12.33,47.84626,-54.09684
2023-09-04 20:39:00+00:00,170.7015,19.66,12.33,47.84626,-54.09684
2023-09-04 20:49:00+00:00,173.8831,19.68,12.33,47.84626,-54.09684
2023-09-04 20:59:00+00:00,174.2015,19.67,12.33,47.84626,-54.09684
2023-09-04 21:09:00+00:00,179.1448,19.6,12.33,47.84626,-54.09684
2023-09-04 21:19:01+00:00,186.7065,19.6,12.33,47.84626,-54.09684
2023-09-04 21:29:01+00:00,191.7248,19.6,12.33,47.84626,-54.09684
2023-09-04 21:39:01+00:00,195.6231,19.6,12.33,47.84626,-54.09684
2023-09-04 21:49:01+00:00,203.2264,19.59,12.33,47.84626,-54.09684
2023-09-04 21:59:01+00:00,208.4231,19.5,12.33,47.84626,-54.09684
2023-09-04 22:09:01+00:00,212.2198,19.22,12.33,47.84626,-54.09684
2023-09-04 22:19:01+00:00,220.1031,18.9,12.33,47.84626,-54.09684
2023-09-04 22:29:01+00:00,228.3631,18.89,12.33,47.84626,-54.09684
2023-09-04 22:39:01+00:00,228.9597,18.9,12.33,47.84626,-54.09684
2023-09-04 22:49:01+00:00,228.0698,18.9,12.33,47.84626,-54.09684
2023-09-04 22:59:01+00:00,237.1614,18.85,12.33,47.84626,-54.09684
2023-09-04 23:09:01+00:00,241.9131,18.89,12.33,47.84626,-54.09684
2023-09-04 23:19:00+00:00,235.9998,18.9,12.25,47.84626,-54.09684
2023-09-04 23:29:00+00:00,235.6281,18.88,12.25,47.84626,-54.09684
2023-09-04 23:39:00+00:00,242.7047,18.87,12.25,47.84626,-54.09684
2023-09-04 23:49:00+00:00,245.6597,18.89,12.25,47.84626,-54.09684
2023-09-04 23:59:00+00:00,244.8915,18.87,12.25,47.84626,-54.09684
